Weather observations for the past three days for
Bartow Municipal
Imperial (Metric)
Date Time (edt) Wind (mph) Vis. (mi.) Weather Sky Cond. Temperature (ºF) Relative Humidity Wind Chill (°F) Heat Index (°F) Pressure Precipitation (in)
Air Dwpt 6 hour altimeter (in) sea level (mb) 1 hr 3 hr 6 hr
Max. Min.
16 02:55 Calm 10.00 Fair CLR 75.2 73.4 94% 74 30.04 0.0
16 02:35 Calm 10.00 Fair CLR 75.2 73.4 94% 74 30.05 0.0
16 02:15 Calm 10.00 Fair CLR 75.2 73.4 94% 74 30.06 0.0
16 01:55 Calm 10.00 A Few Clouds FEW024 75.2 75.2 100% 73 30.06 0.0
16 01:35 NE 3 10.00 A Few Clouds FEW024 75.2 75.2 100% 73 30.07 0.0
16 01:15 Calm 10.00 NULL NULL 75.2 73.4 94% 74 30.07 0.0
16 00:55 Calm 10.00 Fair CLR 75.2 75.2 100% 73 30.08 0.0
16 00:35 Calm 10.00 Fair CLR 75.2 73.4 94% 74 30.07 0.0
16 00:15 Calm 10.00 Fair CLR 77 75.2 94% 78 30.08 0.0
15 23:55 Calm 10.00 Fair CLR 77 75.2 94% 78 30.08 0.0
15 23:35 Calm 10.00 Fair CLR 77 75.2 94% 78 30.07 0.0
15 23:15 Calm 10.00 Fair CLR 77 75.2 94% 78 30.07 0.0
15 22:55 Calm 10.00 Fair CLR 77 75.2 94% 78 30.07 0.0
15 22:35 E 5 10.00 A Few Clouds FEW050 77 75.2 94% 78 30.07 0.0
15 22:15 E 5 10.00 Mostly Cloudy BKN050 77 75.2 94% 78 30.07 0.0
15 21:55 SE 5 10.00 Partly Cloudy FEW050 SCT060 78.8 75.2 89% 82 30.07 0.0
15 21:35 Calm 10.00 Partly Cloudy SCT055 78.8 75.2 89% 82 30.07 0.0
15 21:15 SE 5 10.00 Fair CLR 78.8 75.2 89% 82 30.06 0.0
15 20:55 NE 5 10.00 Fair CLR 80.6 73.4 79% 85 30.06 0.0
15 20:35 N 8 G 17 10.00 A Few Clouds FEW060 80.6 73.4 79% 85 30.07 0.0
15 20:15 N 10 10.00 Thunderstorm in Vicinity FEW060 SCT085 80.6 73.4 79% 85 30.08 0.0
15 19:55 NE 12 G 17 10.00 Thunderstorm in Vicinity FEW060 FEW075 SCT085 80.6 73.4 79% 85 30.06 0.0
15 19:35 E 8 G 16 10.00 Thunderstorm in Vicinity CLR 80.6 73.4 79% 85 30.05 0.0
15 19:15 E 10 10.00 Thunderstorm in Vicinity CLR 82.4 73.4 74% 88 30.04 0.0
15 18:55 E 13 10.00 Thunderstorm in Vicinity FEW060 84.2 75.2 74% 92 30.04 0.0
15 18:35 E 14 10.00 Thunderstorm in Vicinity CLR 87.8 73.4 62% 96 30.02 0.0
15 18:15 N 8 10.00 Thunderstorm in Vicinity CLR 86 71.6 62% 92 30.01 0.0
15 17:55 W 3 10.00 Thunderstorm in Vicinity CLR 82.4 71.6 70% 87 30.02 0.0
15 17:35 SE 15 8.00 Partly Cloudy SCT050 SCT070 80.6 73.4 79% 85 30.02 0.0
15 16:30 S 10 10.00 Partly Cloudy SCT045 89.6 73.4 59% 98 30.02 0.0
15 14:45 E 6 10.00 Partly Cloudy SCT041 91.4 73.4 56% 100 30.08 0.0
15 13:30 N 5 10.00 Partly Cloudy SCT036 89.6 73.4 59% 98 30.1 0.0
15 12:30 N 5 10.00 Clear SKC 87.8 73.4 62% 96 30.13 0.0
15 11:35 SE 5 10.00 Clear SKC 82.4 77 84% 91 30.13 0.0
15 10:35 SE 5 10.00 Clear SKC 82.4 78.8 89% 92 30.14 0.0
15 09:50 E 5 10.00 Clear SKC 80.6 77 89% 87 30.14 0.0
15 09:15 Calm 10.00 Fair CLR 78.8 77 94% 83 30.13 0.0
15 08:55 NE 3 10.00 Fair CLR 78.8 75.2 89% 82 30.13 0.0
15 08:35 E 3 10.00 Fair CLR 78.8 75.2 89% 82 30.13 0.0
15 08:15 Calm 10.00 Fair CLR 77 75.2 94% 78 30.13 0.0
15 07:55 Calm 10.00 Fair CLR 77 73.4 89% 78 30.13 0.0
15 07:35 Calm 10.00 Fair CLR 77 73.4 89% 78 30.12 0.0
15 07:30 Calm 10.00 Clear SKC 75.2 73.4 94% 74 30.11 0.0
15 07:15 Calm 10.00 Fair CLR 75.2 73.4 94% 74 30.11 0.0
15 06:55 Calm 10.00 A Few Clouds FEW024 FEW032 75.2 73.4 94% 74 30.11 0.0
15 06:35 Calm 10.00 Mostly Cloudy BKN020 BKN025 BKN031 75.2 73.4 94% 74 30.1 0.0
15 06:15 Calm 10.00 Overcast BKN020 OVC025 75.2 73.4 94% 74 30.1 0.0
15 05:55 Calm 10.00 Overcast SCT022 OVC028 75.2 73.4 94% 74 30.1 0.0
15 05:35 Calm 10.00 Overcast BKN028 OVC034 75.2 73.4 94% 74 30.09 0.0
15 05:15 SE 3 10.00 Overcast BKN027 OVC032 75.2 73.4 94% 74 30.08 0.0
15 04:55 Calm 10.00 Overcast BKN025 OVC030 75.2 73.4 94% 74 30.09 0.0
15 04:35 Calm 10.00 Overcast BKN023 OVC029 75.2 73.4 94% 74 30.09 0.0
15 04:15 Calm 10.00 Partly Cloudy SCT023 75.2 73.4 94% 74 30.09 0.0
15 03:55 Calm 10.00 Partly Cloudy SCT024 SCT029 SCT034 75.2 73.4 94% 74 30.08 0.0
15 03:35 Calm 10.00 Overcast SCT024 OVC030 73.4 73.4 100% 30.09 0.0
15 03:15 SE 5 10.00 Mostly Cloudy BKN030 BKN037 BKN043 73.4 73.4 100% 30.09 0.0
15 02:55 Calm 10.00 Overcast OVC031 73.4 73.4 100% 30.1 0.0
15 02:35 Calm 10.00 Overcast OVC032 73.4 73.4 100% 30.1 0.0
15 02:15 Calm 10.00 Overcast OVC036 73.4 73.4 100% 30.11 0.0
15 01:55 Calm 10.00 Overcast OVC036 73.4 73.4 100% 30.12 0.0
15 01:35 Calm 10.00 Partly Cloudy SCT037 SCT047 75.2 73.4 94% 74 30.13 0.0
15 01:15 Calm 10.00 Fair CLR 73.4 73.4 100% 30.13 0.0
15 00:55 Calm 10.00 Fair CLR 73.4 73.4 100% 30.13 0.0
15 00:35 Calm 10.00 Fair CLR 75.2 73.4 94% 74 30.13 0.0
15 00:15 NE 5 10.00 Fair CLR 75.2 71.6 89% 75 30.12 0.0
14 23:55 N 5 10.00 Fair CLR 75.2 73.4 94% 74 30.12 0.0
14 23:35 NE 3 10.00 Fair CLR 73.4 73.4 100% 30.13 0.0
14 23:15 NE 7 10.00 Fair CLR 73.4 73.4 100% 30.12 0.0
14 22:55 NE 5 10.00 A Few Clouds FEW024 73.4 73.4 100% 30.12 0.0
14 22:35 Calm 10.00 Partly Cloudy SCT024 SCT085 73.4 73.4 100% 30.12 0.0
14 22:15 Calm 10.00 A Few Clouds FEW050 FEW065 FEW085 73.4 71.6 94% 30.13 0.0
14 21:55 Calm 10.00 Mostly Cloudy FEW048 SCT060 BKN090 73.4 73.4 100% 30.14 0.0
14 21:35 SW 5 10.00 Overcast SCT045 BKN055 OVC090 73.4 71.6 94% 30.14 0.0
14 21:30 W 7 10.00 Overcast SCT045 BKN055 OVC095 73.4 71.6 94% 30.14 0.0
14 21:15 Calm 10.00 Overcast SCT043 BKN050 OVC095 73.4 71.6 94% 30.15 0.0
14 20:55 Calm 10.00 Mostly Cloudy SCT042 BKN055 BKN065 73.4 71.6 94% 30.16 0.0
14 20:35 N 5 10.00 Mostly Cloudy FEW032 SCT045 BKN060 73.4 71.6 94% 30.16 0.0
14 20:15 Calm 9.00 Thunderstorm in Vicinity FEW033 BKN055 OVC070 73.4 69.8 89% 30.17 0.0
14 19:55 N 10 G 20 2.50 Thunderstorm SCT002 BKN040 OVC055 73.4 71.6 94% 30.18 0.0
14 19:35 N 21 G 30 0.75 Thunderstorm and Breezy BKN004 OVC020 75.2 73.4 94% 74 30.19 0.0
14 19:15 NW 12 G 23 7.00 Thunderstorm in Vicinity FEW008 SCT028 BKN033 77 75.2 94% 78 30.17 0.0
14 18:55 W 14 G 20 9.00 Thunderstorm in Vicinity BKN027 BKN041 OVC095 78.8 75.2 89% 82 30.14 0.0
14 18:35 W 12 10.00 Thunderstorm in Vicinity SCT027 BKN050 OVC060 80.6 75.2 84% 86 30.13 0.0
14 18:15 W 5 10.00 Thunderstorm SCT065 80.6 75.2 84% 86 30.12 0.0
14 17:55 S 5 10.00 Thunderstorm FEW033 SCT060 80.6 73.4 79% 85 30.09 0.0
14 17:35 S 12 G 20 7.00 Thunderstorm in Vicinity BKN033 BKN040 OVC065 80.6 73.4 79% 85 30.08 0.0
14 14:45 E 7 G 13 10.00 Partly Cloudy SCT045 91.4 73.4 56% 100 30.12 0.0
14 13:50 E 7 10.00 Partly Cloudy SCT040 91.4 73.4 56% 100 30.15 0.0
14 12:50 Vrbl 5 10.00 Partly Cloudy SCT030 89.6 73.4 59% 98 30.16 0.0
14 10:45 Calm 10.00 Partly Cloudy SCT028 87.8 75.2 66% 98 30.17 0.0
14 09:50 SE 5 10.00 A Few Clouds FEW025 86 77 75% 97 30.17 0.0
14 09:15 Calm 10.00 Fair CLR 84.2 77 79% 94 30.18 0.0
14 08:55 Calm 10.00 Fair CLR 82.4 77 84% 91 30.18 0.0
14 08:35 Calm 10.00 Fair CLR 80.6 77 89% 87 30.18 0.0
14 08:15 Calm 10.00 Fair CLR 80.6 77 89% 87 30.17 0.0
14 07:55 Calm 10.00 Fair CLR 80.6 77 89% 87 30.16 0.0
14 07:35 Calm 10.00 Fair CLR 77 77 100% 78 30.16 0.0
14 07:30 Calm 10.00 Clear SKC 77 75.2 94% 78 30.16 0.0
14 07:25 Calm 10.00 Fair CLR 77 75.2 94% 78 30.16 0.0
14 07:15 Calm 10.00 Fair CLR 77 75.2 94% 78 30.16 0.0
14 06:55 Calm 10.00 Fair CLR 77 75.2 94% 78 30.16 0.0
14 06:35 NW 3 10.00 Fair CLR 77 75.2 94% 78 30.15 0.0
14 06:15 Calm 10.00 Fair CLR 75.2 75.2 100% 73 30.15 0.0
14 05:55 Calm 10.00 Fair CLR 75.2 75.2 100% 73 30.15 0.0
14 05:35 Calm 10.00 Fair CLR 75.2 75.2 100% 73 30.15 0.0
14 05:15 Calm 10.00 Fair CLR 75.2 73.4 94% 74 30.15 0.0
14 04:55 Calm 10.00 Fair CLR 75.2 75.2 100% 73 30.15 0.0
14 04:35 Calm 10.00 Fair CLR 75.2 75.2 100% 73 30.15 0.0
14 04:30 Calm 10.00 Fair CLR 75.2 75.2 100% 73 30.15 0.0
14 04:15 Calm 10.00 Fair CLR 77 75.2 94% 78 30.15 0.0
14 03:35 Calm 10.00 Fair CLR 75.2 75.2 100% 73 30.16 0.0
14 03:15 Calm 10.00 Fair CLR 75.2 75.2 100% 73 30.16 0.0
14 02:55 Calm 10.00 Fair CLR 77 75.2 94% 78 30.16 0.0
14 02:35 Calm 10.00 Fair CLR 77 75.2 94% 78 30.17 0.0
14 02:15 Calm 10.00 Fair CLR 75.2 75.2 100% 73 30.17 0.0
14 01:55 Calm 10.00 Fair CLR 77 75.2 94% 78 30.18 0.0
14 01:35 Calm 10.00 Fair CLR 77 75.2 94% 78 30.19 0.0
14 01:15 Calm 10.00 Fair CLR 75.2 73.4 94% 74 30.19 0.0
14 00:55 Calm 10.00 Fair CLR 77 75.2 94% 78 30.19 0.0
14 00:35 Calm 10.00 Fair CLR 77 75.2 94% 78 30.2 0.0
14 00:15 Calm 10.00 Fair CLR 77 75.2 94% 78 30.2 0.0
13 23:55 Calm 10.00 Fair CLR 77 75.2 94% 78 30.19 0.0
13 23:35 Calm 10.00 Fair CLR 77 75.2 94% 78 30.19 0.0
13 23:15 E 3 10.00 Fair CLR 77 75.2 94% 78 30.2 0.0
13 22:55 SE 5 10.00 Fair CLR 77 75.2 94% 78 30.19 0.0
13 22:35 SE 10 10.00 Fair CLR 77 75.2 94% 78 30.19 0.0
13 22:15 E 3 10.00 Fair CLR 77 75.2 94% 78 30.18 0.0
13 21:55 E 6 10.00 Fair CLR 75.2 75.2 100% 73 30.18 0.0
13 21:35 E 3 10.00 Fair CLR 75.2 75.2 100% 73 30.17 0.0
13 21:15 Calm 10.00 Fair CLR 77 75.2 94% 78 30.17 0.0
13 20:55 Calm 10.00 Fair CLR 77 75.2 94% 78 30.17 0.0
13 20:35 Calm 10.00 Fair CLR 77 75.2 94% 78 30.17 0.0
13 20:15 Calm 10.00 Fair CLR 77 75.2 94% 78 30.18 0.0
13 19:55 Calm 10.00 Fair CLR 77 73.4 89% 78 30.2 0.0
13 19:35 Calm 10.00 Fair CLR 77 73.4 89% 78 30.2 0.0
13 19:15 W 3 10.00 Fair CLR 77 73.4 89% 78 30.2 0.0
13 18:55 SW 5 10.00 Mostly Cloudy SCT043 BKN050 75.2 73.4 94% 74 30.2 0.0
13 18:35 W 3 10.00 Thunderstorm in Vicinity BKN046 BKN050 75.2 73.4 94% 74 30.2 0.0
13 18:15 SW 5 5.00 Thunderstorm SCT002 SCT026 SCT046 77 73.4 89% 78 30.19 0.0
13 17:55 W 14 G 22 0.25 Thunderstorm OVC002 77 73.4 89% 78 30.19 0.0
13 17:35 SW 9 G 18 3.00 Thunderstorm FEW002 SCT047 BKN055 78.8 75.2 89% 82 30.18 0.0
13 16:25 NW 3 2.50 Overcast OVC047 95 71.6 47% 103 30.15 0.0
13 15:45 NW 3 10.00 Partly Cloudy SCT048 96.8 71.6 44% 105 30.15 0.0
13 14:45 Calm 10.00 Partly Cloudy SCT043 91.4 71.6 52% 99 30.17 0.0
13 14:00 W 5 10.00 A Few Clouds FEW044 91.4 71.6 52% 99 30.18 0.0
13 12:40 SE 3 10.00 Partly Cloudy SCT037 89.6 71.6 55% 96 30.21 0.0
13 12:10 SE 3 10.00 Fair CLR 89.6 71.6 55% 96 30.21 0.0
13 11:00 Calm 10.00 Fair CLR 87.8 71.6 59% 94 30.21 0.0
13 09:15 SE 3 10.00 Fair CLR 84.2 77 79% 94 30.2 0.0
13 08:55 SE 3 10.00 Fair CLR 82.4 78.8 89% 92 30.2 0.0
13 08:45 SE 5 10.00 Fair CLR 80.6 77 89% 87 30.2 0.0
13 08:35 SE 3 10.00 Fair CLR 80.6 77 89% 87 30.2 0.0
13 08:15 Calm 10.00 Fair CLR 78.8 77 94% 83 30.2 0.0
13 08:10 SE 3 10.00 Fair CLR 77 77 100% 78 30.2 0.0
13 07:55 Calm 10.00 Fair CLR 77 77 100% 78 30.2 0.0
13 07:35 Calm 10.00 Fair CLR 75.2 75.2 100% 73 30.19 0.0
13 07:30 Calm 10.00 Fair CLR 75.2 71.6 89% 75 30.19 0.0
13 07:15 Calm 10.00 Fair CLR 75.2 73.4 94% 74 30.18 0.0
13 06:55 Calm 1.50 Fog/Mist CLR 73.4 73.4 100% 30.18 0.0
13 06:35 Calm 10.00 Fair CLR 73.4 73.4 100% 30.17 0.0
13 06:15 Calm 6.00 Fog/Mist CLR 75.2 73.4 94% 74 30.16 0.0
13 05:55 Calm 10.00 Fair CLR 75.2 75.2 100% 73 30.16 0.0
13 05:35 Calm 10.00 Fair CLR 73.4 73.4 100% 30.16 0.0
13 05:15 Calm 10.00 Fair CLR 73.4 73.4 100% 30.15 0.0
13 04:55 Calm 10.00 Fair CLR 75.2 75.2 100% 73 30.14 0.0
13 04:35 Calm 10.00 Fair CLR 75.2 75.2 100% 73 30.14 0.0
13 04:15 Calm 10.00 Fair CLR 75.2 75.2 100% 73 30.13 0.0
13 03:55 Calm 10.00 Fair CLR 75.2 73.4 94% 74 30.14 0.0
13 03:35 SE 3 10.00 Fair CLR 75.2 73.4 94% 74 30.13 0.0
13 03:15 Calm 10.00 Fair CLR 75.2 73.4 94% 74 30.13 0.0
Date Time (edt) Wind (mph) Vis. (mi.) Weather Sky Cond. Air Dwpt Max. Min. Relative Humidity Wind Chill (°F) Heat Index (°F) altimeter (in) sea level (mb) 1 hr 3 hr 6 hr
6 hour
Temperature (ºF) Pressure Precipitation (in)